Regional Weather Roundup
Issued by NWS

Home | Current Version | Previous Version | Graphics & Text | Print | Product List | Glossary On
Versions: 1 2 3 4 5 6 7 8 9 10 11 12 13 14 15 16 17 18 19 20 21 22 23 24 25 26 27 28 29 30 31 32 33 34 35 36 37 38 39 40 41 42 43 44 45 46 47 48 49 50
000
ASUS43 KDTX 080210
RWRMI
MICHIGAN HOURLY REGIONAL WEATHER ROUNDUP
NATIONAL WEATHER SERVICE DETROIT/PONTIAC MI
1000 PM EDT TUE JUL 07 2015

NOTE: "FAIR" INDICATES FEW OR NO CLOUDS BELOW 12,000 FEET WITH NO
SIGNIFICANT WEATHER AND/OR OBSTRUCTION TO VISIBILITY.

MIZ047>049-052>055-059>063-066>070-074>076-081>083-080300-
SOUTHEAST LOWER MICHIGAN

CITY           SKY/WX    TMP DP  RH WIND       PRES   REMARKS
ADRIAN         CLOUDY    63  58  83 NE7       30.01R
ALMA           CLEAR     58  52  81 N6        30.04R
ANN ARBOR      CLOUDY    64  56  75 N7        30.00S
BAD AXE        MOCLDY    56  52  84 N6        30.04R
CARO           CLOUDY    62  58  89 CALM      30.02R
DETROIT CITY   CLOUDY    62  59  90 N7        30.01R
DETROIT        CLOUDY    65  58  78 N8        30.01R
FLINT          CLOUDY    64  54  69 N7        30.02R
GROSSE ILE     DRIZZLE   63  61  94 N7        30.00R
HILLSDALE      CLEAR     60  59  94 CALM      30.02R
HOWELL         CLOUDY    62  55  78 CALM      30.03R

CITY           SKY/WX    TMP DP  RH WIND       PRES   REMARKS
JACKSON        CLEAR     60  54  80 N5        30.02R
LAMBERTVILLE   CLOUDY    65  59  81 N5        30.00R
LANSING        CLEAR     59  51  75 CALM      30.04R
LAPEER         CLOUDY    60  58  94 CALM      30.02R
MASON          PTCLDY    58  50  75 N5        30.03R
MONROE         CLOUDY    64  59  85 N10G16    30.00R
MT. CLEMENS    CLOUDY    61  59  93 N6        29.99R
PONTIAC        CLOUDY    62  58  86 N6        30.01R
PORT HOPE        N/A     60  53  77 N12G21    30.01R
PORT HURON     MOCLDY    59  54  82 N7        30.01R
TRI CITIES     CLOUDY    64  54  69 NW3       30.03R
MIDLAND        FAIR      57  52  81 NW3       30.03R
TROY           CLOUDY    63  58  86 N8        30.03R
SAGINAW HB     PTCLDY    59  52  77 NW3       30.02R
$$
MIZ043>046-050>051-056>058-064>065-071>073-077>080-080300-
SOUTHWEST LOWER MICHIGAN

CITY           SKY/WX    TMP DP  RH WIND       PRES   REMARKS
BATTLE CREEK   MOCLDY    64  55  72 NE3       30.03R
BENTON HARBOR  CLEAR     59  48  67 N8        30.04S
BIG RAPIDS     CLEAR     57  47  67 CALM      30.06R
COLDWATER      CLEAR     60  56  87 NE5       30.02R
FREMONT        FAIR      56  51  82 N6        30.05S
HOLLAND        CLEAR     59  49  69 NW5       30.05R
GRAND RAPIDS   PTCLDY    62  51  67 N7        30.03R
IONIA          FAIR      60  53  77 NE3       30.03R
KALAMAZOO      CLEAR     61  51  70 NW8       30.03R
LUDINGTON      CLEAR     56  50  80 N5        30.08S
MARSHALL       PTCLDY    59  56  90 CALM      30.02R
MOUNT PLEASANT CLEAR     58  48  70 NW3       30.05R
MUSKEGON       PTCLDY    60  48  64 N10       30.06R
SOUTH HAVEN    CLEAR     57  49  76 N8        30.04S
$$
MIZ016>042-080300-
NORTHERN LOWER MICHIGAN

CITY           SKY/WX    TMP DP  RH WIND       PRES   REMARKS
ALPENA         CLEAR     57  49  74 NW3       30.05R
BEAVER ISLAND  CLEAR     55  49  82 N3        30.08R
BELLAIRE       CLEAR     53  49  86 CALM      30.07R
CADILLAC       CLEAR     53  48  82 CALM      30.07R
CHARLEVOIX     CLEAR     59  52  77 N5        30.10R
FRANKFORT      CLEAR     59  45  59 CALM      30.08S
GAYLORD        MOCLDY    55  51  86 NW3       30.07R
GRAYLING       CLEAR     53  48  84 CALM      30.08R
HARBOR SPRINGS CLEAR     55  50  82 CALM      30.07R
HOUGHTON LAKE  CLEAR     55  48  77 NW3       30.06R
MANISTEE       CLEAR     55  46  71 CALM      30.09R
OSCODA         CLEAR     58  49  72 N6        30.03R
PELLSTON       CLEAR     54  49  83 NW5       30.07R
ROGERS CITY    CLEAR     58  51  79 NW9       30.06R
TRAVERSE CITY  PTCLDY    59  49  69 N3        30.06R
$$
MIZ007>008-015-080300-
EASTERN UPPER MICHIGAN

CITY           SKY/WX    TMP DP  RH WIND       PRES   REMARKS
KINROSS        CLEAR     52  48  87 NW8       30.06R
MACKINAC ISLAN CLEAR     57  47  68 N8        30.06R
NEWBERRY       CLEAR     52  47  81 NW3       30.07R
S. S. MARIE    CLEAR     51  44  77 W8        30.05R
MUNISING         N/A     57  45  64 NW6       30.06F
$$
MIZ004>006-011>014-085-080300-
CENTRAL UPPER MICHIGAN

CITY           SKY/WX    TMP DP  RH WIND       PRES   REMARKS
MANISTIQUE     CLEAR     53  45  76 CALM      30.07R
ESCANABA       CLEAR     59  43  55 N3        30.08R
MENOMINEE      CLEAR     61  46  59 E3        30.08R
SAWYER-GWINN   CLEAR     57  45  62 N5        30.08F
$$
MIZ001>003-009>011-084-080300-
WESTERN UPPER MICHIGAN

CITY           SKY/WX    TMP DP  RH WIND       PRES   REMARKS
IRON MOUNTAIN  CLEAR     57  48  72 CALM      30.08R
HOUGHTON       CLEAR     58  44  60 W7        30.08S
COPPER HARBOR    N/A     59  47  64 CALM      30.07R
IRONWOOD       CLEAR     55  52  88 CALM      30.09R
$$

ABBREVIATIONS USED IN REMARKS
   TC - TEMPERATURE IN CELSIUS
  WCI - WIND CHILL INDEX
   HX - HEAT INDEX
  VSB - VISIBILITY



USA.gov is the U.S. government's official web portal to all federal, state and local government web resources and services.